Skip Page Navigation
NASA JPL Caltech
NASA Logo - Jet Propulsion Laboratory + View the NASA Portal
+ Center for Near-Earth Object Studies
JPL Home Earth Solar System Stars & Galaxies Technology
JPL Solar System Dynamics
BODIES ORBITS EPHEMERIDES TOOLS PHYSICAL DATA DISCOVERY FAQ SITE MAP
IMPORTANT: The SSD Announcement email list is now available. Major changes are coming in the near future, including possible hostname and/or URL changes. To be notified of such changes, subscribe to this email list.

Please visit this page for more details.


JPL Small-Body Database Browser
Search: [ help ]  
268695 (2006 GO48)
Classification: Main-belt Asteroid          SPK-ID: 2268695
Ephemeris | Orbit Diagram | Orbital Elements | Mission Design | Physical Parameters | Discovery Circumstances | Close-Approach Data ]

[ show orbit diagram ]
Orbital Elements at Epoch 2458600.5 (2019-Apr-27.0) TDB
Reference: JPL 13 (heliocentric ecliptic J2000)
 Element Value Uncertainty (1-sigma)   Units 
e .1379642755970377 5.2862e-08  
a 3.107259630539903 3.6692e-08 au
q 2.678568806520546 1.546e-07 au
i .1568267829339276 6.073e-06 deg
node 118.5481183531891 0.0028492 deg
peri 155.6445475765402 0.0028493 deg
M 89.54378150190526 2.9142e-05 deg
tp 2458102.880178379249
(2017-Dec-15.38017838)
0.00016108 TDB
period 2000.620621317615
5.48
3.5436e-05
9.702e-08
d
yr
n .1799441614087247 3.1873e-09 deg/d
Q 3.53595045455926 4.1754e-08 au
  Orbit Determination Parameters
   # obs. used (total)      188  
   data-arc span      7207 days (19.73 yr)  
   first obs. used      2000-03-03  
   last obs. used      2019-11-26  
   planetary ephem.      DE431  
   SB-pert. ephem.      SB431-N16  
   condition code      0  
   norm. resid. RMS      .69954  
   source      ORB  
   producer      Otto Matic  
   solution date      2019-Dec-04 19:40:50  

Additional Information
 Earth MOID = 1.66173 au 
 Jupiter MOID = 1.57309 au 
 T_jup = 3.205 
[ show covariance matrix ]

Ephemeris | Orbit Diagram | Orbital Elements | Mission Design | Physical Parameters | Discovery Circumstances | Close-Approach Data ]

Physical Parameter Table
Parameter Symbol Value Units Sigma Reference Notes
absolute magnitude H 16.3   n/a MPO454997  

268695 (2006 GO48)          Discovered 2006-Apr-09 by Spacewatch at Kitt Peak
Reference: 20110319/Numbers.arcLast Updated: 2011-03-23

[ show close-approach data ]
Ephemeris | Orbit Diagram | Orbital Elements | Mission Design | Physical Parameters | Discovery Circumstances | Close-Approach Data ]
ABOUT SSD CREDITS/AWARDS PRIVACY/COPYRIGHT GLOSSARY LINKS
FirstGov 2020-Jan-19 05:24 UT
(server date/time)  
NASA Home Page
Site Manager:   Ryan S. Park
Webmaster  Alan B. Chamberlin